owner,sensor,date,latitude,longitude,mass_concentration_of_chlorophyll_in_sea_water,qcFlag 
SCCF RECON,ioos:station:SCCF:18:1,2014-06-01T00:00:00Z,26.6955,-81.8138,10.65,1111122 
SCCF RECON,ioos:station:SCCF:18:1,2014-06-01T01:00:00Z,26.6955,-81.8138,7.67,1111122 
SCCF RECON,ioos:station:SCCF:18:1,2014-06-01T02:00:00Z,26.6955,-81.8138,7.15,1111122 
SCCF RECON,ioos:station:SCCF:18:1,2014-06-01T03:00:00Z,26.6955,-81.8138,6.79,1111122 
SCCF RECON,ioos:station:SCCF:18:1,2014-06-01T04:00:00Z,26.6955,-81.8138,6.28,1111122 
SCCF RECON,ioos:station:SCCF:18:1,2014-06-01T05:00:00Z,26.6955,-81.8138,5.64,1111122 
SCCF RECON,ioos:station:SCCF:18:1,2014-06-01T06:00:00Z,26.6955,-81.8138,5.5,1111122 
SCCF RECON,ioos:station:SCCF:18:1,2014-06-01T07:00:00Z,26.6955,-81.8138,5.52,1111122 
SCCF RECON,ioos:station:SCCF:18:1,2014-06-01T08:00:00Z,26.6955,-81.8138,5.86,1111122 
SCCF RECON,ioos:station:SCCF:18:1,2014-06-01T09:00:00Z,26.6955,-81.8138,5.87,1111122 
SCCF RECON,ioos:station:SCCF:18:1,2014-06-01T10:00:00Z,26.6955,-81.8138,5.25,1111122 
SCCF RECON,ioos:station:SCCF:18:1,2014-06-01T11:00:00Z,26.6955,-81.8138,5.74,1111122 
SCCF RECON,ioos:station:SCCF:18:1,2014-06-01T12:00:00Z,26.6955,-81.8138,5.32,1111122 
SCCF RECON,ioos:station:SCCF:18:1,2014-06-01T13:00:00Z,26.6955,-81.8138,6.6,1111122 
SCCF RECON,ioos:station:SCCF:18:1,2014-06-01T14:00:00Z,26.6955,-81.8138,5.55,1111122 
SCCF RECON,ioos:station:SCCF:18:1,2014-06-01T15:00:00Z,26.6955,-81.8138,7.06,1111122 
SCCF RECON,ioos:station:SCCF:18:1,2014-06-01T16:00:00Z,26.6955,-81.8138,6.93,1111122 
SCCF RECON,ioos:station:SCCF:18:1,2014-06-01T17:00:00Z,26.6955,-81.8138,8.57,1111122 
SCCF RECON,ioos:station:SCCF:18:1,2014-06-01T18:00:00Z,26.6955,-81.8138,9.18,1111122 
SCCF RECON,ioos:station:SCCF:18:1,2014-06-01T19:00:00Z,26.6955,-81.8138,9.12,1111122 
SCCF RECON,ioos:station:SCCF:18:1,2014-06-01T20:00:00Z,26.6955,-81.8138,8.0,1111122 
SCCF RECON,ioos:station:SCCF:18:1,2014-06-01T21:00:00Z,26.6955,-81.8138,9.97,1111122 
SCCF RECON,ioos:station:SCCF:18:1,2014-06-01T22:00:00Z,26.6955,-81.8138,9.32,1111122 
SCCF RECON,ioos:station:SCCF:18:1,2014-06-01T23:00:00Z,26.6955,-81.8138,10.66,1111122 
SCCF RECON,ioos:station:SCCF:18:1,2014-06-02T00:00:00Z,26.6955,-81.8138,9.88,1111122 
SCCF RECON,ioos:station:SCCF:18:1,2014-06-02T01:00:00Z,26.6955,-81.8138,10.56,1111122 
SCCF RECON,ioos:station:SCCF:18:1,2014-06-02T02:00:00Z,26.6955,-81.8138,9.66,1111122 
SCCF RECON,ioos:station:SCCF:18:1,2014-06-02T03:00:00Z,26.6955,-81.8138,7.85,1111122 
SCCF RECON,ioos:station:SCCF:18:1,2014-06-02T04:00:00Z,26.6955,-81.8138,7.26,1111122 
SCCF RECON,ioos:station:SCCF:18:1,2014-06-02T05:00:00Z,26.6955,-81.8138,6.36,1111122 
SCCF RECON,ioos:station:SCCF:18:1,2014-06-02T06:00:00Z,26.6955,-81.8138,6.16,1111122 
SCCF RECON,ioos:station:SCCF:18:1,2014-06-02T07:00:00Z,26.6955,-81.8138,6.19,1111122 
SCCF RECON,ioos:station:SCCF:18:1,2014-06-02T08:00:00Z,26.6955,-81.8138,5.99,1111122 
SCCF RECON,ioos:station:SCCF:18:1,2014-06-02T09:00:00Z,26.6955,-81.8138,6.72,1111122 
SCCF RECON,ioos:station:SCCF:18:1,2014-06-02T10:00:00Z,26.6955,-81.8138,6.12,1111122 
SCCF RECON,ioos:station:SCCF:18:1,2014-06-02T11:00:00Z,26.6955,-81.8138,6.93,1111122 
SCCF RECON,ioos:station:SCCF:18:1,2014-06-02T12:00:00Z,26.6955,-81.8138,7.16,1111122 
SCCF RECON,ioos:station:SCCF:18:1,2014-06-02T13:00:00Z,26.6955,-81.8138,7.27,1111122 
SCCF RECON,ioos:station:SCCF:18:1,2014-06-02T14:00:00Z,26.6955,-81.8138,5.53,1111122 
SCCF RECON,ioos:station:SCCF:18:1,2014-06-02T15:00:00Z,26.6955,-81.8138,6.32,1111122 
SCCF RECON,ioos:station:SCCF:18:1,2014-06-02T16:00:00Z,26.6955,-81.8138,6.15,1111122 
SCCF RECON,ioos:station:SCCF:18:1,2014-06-02T17:00:00Z,26.6955,-81.8138,6.98,1111122 
SCCF RECON,ioos:station:SCCF:18:1,2014-06-02T18:00:00Z,26.6955,-81.8138,7.27,1111122 
SCCF RECON,ioos:station:SCCF:18:1,2014-06-02T19:00:00Z,26.6955,-81.8138,8.33,1111122 
SCCF RECON,ioos:station:SCCF:18:1,2014-06-02T20:00:00Z,26.6955,-81.8138,9.03,1111122 
SCCF RECON,ioos:station:SCCF:18:1,2014-06-02T21:00:00Z,26.6955,-81.8138,8.85,1111122 
SCCF RECON,ioos:station:SCCF:18:1,2014-06-02T22:00:00Z,26.6955,-81.8138,7.88,1111122 
SCCF RECON,ioos:station:SCCF:18:1,2014-06-02T23:00:00Z,26.6955,-81.8138,7.41,1111122 
SCCF RECON,ioos:station:SCCF:18:1,2014-06-03T00:00:00Z,26.6955,-81.8138,8.06,1111122 
SCCF RECON,ioos:station:SCCF:18:1,2014-06-03T01:00:00Z,26.6955,-81.8138,6.76,1111122 
SCCF RECON,ioos:station:SCCF:18:1,2014-06-03T02:00:00Z,26.6955,-81.8138,6.47,1111122 
SCCF RECON,ioos:station:SCCF:18:1,2014-06-03T03:00:00Z,26.6955,-81.8138,5.64,1111122 
SCCF RECON,ioos:station:SCCF:18:1,2014-06-03T04:00:00Z,26.6955,-81.8138,5.41,1111122 
SCCF RECON,ioos:station:SCCF:18:1,2014-06-03T05:00:00Z,26.6955,-81.8138,5.48,1111122 
SCCF RECON,ioos:station:SCCF:18:1,2014-06-03T06:00:00Z,26.6955,-81.8138,4.62,1111122 
SCCF RECON,ioos:station:SCCF:18:1,2014-06-03T07:00:00Z,26.6955,-81.8138,4.83,1111122 
SCCF RECON,ioos:station:SCCF:18:1,2014-06-03T08:00:00Z,26.6955,-81.8138,4.42,1111122 
SCCF RECON,ioos:station:SCCF:18:1,2014-06-03T09:00:00Z,26.6955,-81.8138,5.85,1111122 
SCCF RECON,ioos:station:SCCF:18:1,2014-06-03T10:00:00Z,26.6955,-81.8138,5.32,1111122 
SCCF RECON,ioos:station:SCCF:18:1,2014-06-03T11:00:00Z,26.6955,-81.8138,5.65,1111122 
SCCF RECON,ioos:station:SCCF:18:1,2014-06-03T12:00:00Z,26.6955,-81.8138,5.95,1111122 
SCCF RECON,ioos:station:SCCF:18:1,2014-06-03T13:00:00Z,26.6955,-81.8138,5.34,1111122 
SCCF RECON,ioos:station:SCCF:18:1,2014-06-03T14:00:00Z,26.6955,-81.8138,4.93,1111122 
SCCF RECON,ioos:station:SCCF:18:1,2014-06-03T15:00:00Z,26.6955,-81.8138,10.57,1111122 
SCCF RECON,ioos:station:SCCF:18:1,2014-06-03T16:00:00Z,26.6955,-81.8138,5.54,1111122 
SCCF RECON,ioos:station:SCCF:18:1,2014-06-03T17:00:00Z,26.6955,-81.8138,6.0,1111122 
SCCF RECON,ioos:station:SCCF:18:1,2014-06-03T18:00:00Z,26.6955,-81.8138,6.01,1111122 
SCCF RECON,ioos:station:SCCF:18:1,2014-06-03T19:00:00Z,26.6955,-81.8138,5.65,1111122 
SCCF RECON,ioos:station:SCCF:18:1,2014-06-03T20:00:00Z,26.6955,-81.8138,6.68,1111122 
SCCF RECON,ioos:station:SCCF:18:1,2014-06-03T21:00:00Z,26.6955,-81.8138,9.6,1111122 
SCCF RECON,ioos:station:SCCF:18:1,2014-06-03T22:00:00Z,26.6955,-81.8138,8.49,1111122 
SCCF RECON,ioos:station:SCCF:18:1,2014-06-03T23:00:00Z,26.6955,-81.8138,12.05,1111122 
SCCF RECON,ioos:station:SCCF:18:1,2014-06-04T00:00:00Z,26.6955,-81.8138,7.34,1111122 
SCCF RECON,ioos:station:SCCF:18:1,2014-06-04T01:00:00Z,26.6955,-81.8138,8.15,1111122 
SCCF RECON,ioos:station:SCCF:18:1,2014-06-04T02:00:00Z,26.6955,-81.8138,9.36,1111122 
SCCF RECON,ioos:station:SCCF:18:1,2014-06-04T03:00:00Z,26.6955,-81.8138,7.37,1111122 
SCCF RECON,ioos:station:SCCF:18:1,2014-06-04T04:00:00Z,26.6955,-81.8138,6.86,1111122 
SCCF RECON,ioos:station:SCCF:18:1,2014-06-04T05:00:00Z,26.6955,-81.8138,6.72,1111122 
SCCF RECON,ioos:station:SCCF:18:1,2014-06-04T06:00:00Z,26.6955,-81.8138,-9999.0,1111122 
SCCF RECON,ioos:station:SCCF:18:1,2014-06-04T07:00:00Z,26.6955,-81.8138,5.74,1111122 
SCCF RECON,ioos:station:SCCF:18:1,2014-06-04T08:00:00Z,26.6955,-81.8138,5.86,1111122 
SCCF RECON,ioos:station:SCCF:18:1,2014-06-04T09:00:00Z,26.6955,-81.8138,-9999.0,1111122 
SCCF RECON,ioos:station:SCCF:18:1,2014-06-04T10:00:00Z,26.6955,-81.8138,-9999.0,1111122 
SCCF RECON,ioos:station:SCCF:18:1,2014-06-04T11:00:00Z,26.6955,-81.8138,-9999.0,1111122 
SCCF RECON,ioos:station:SCCF:18:1,2014-06-04T12:00:00Z,26.6955,-81.8138,-9999.0,1111122 
SCCF RECON,ioos:station:SCCF:18:1,2014-06-04T13:00:00Z,26.6955,-81.8138,-9999.0,1111122 
SCCF RECON,ioos:station:SCCF:18:1,2014-06-04T14:00:00Z,26.6955,-81.8138,-9999.0,1111122 
SCCF RECON,ioos:station:SCCF:18:1,2014-06-04T15:00:00Z,26.6955,-81.8138,-9999.0,1111122 
SCCF RECON,ioos:station:SCCF:18:1,2014-06-04T16:00:00Z,26.6955,-81.8138,-9999.0,1111122 
SCCF RECON,ioos:station:SCCF:18:1,2014-06-04T17:00:00Z,26.6955,-81.8138,-9999.0,1111122 
SCCF RECON,ioos:station:SCCF:18:1,2014-06-04T18:00:00Z,26.6955,-81.8138,-9999.0,1111122 
SCCF RECON,ioos:station:SCCF:18:1,2014-06-04T19:00:00Z,26.6955,-81.8138,7.57,1111122 
SCCF RECON,ioos:station:SCCF:18:1,2014-06-04T20:00:00Z,26.6955,-81.8138,7.81,1111122 
SCCF RECON,ioos:station:SCCF:18:1,2014-06-04T21:00:00Z,26.6955,-81.8138,-9999.0,1111122 
SCCF RECON,ioos:station:SCCF:18:1,2014-06-04T22:00:00Z,26.6955,-81.8138,11.4,1111122 
SCCF RECON,ioos:station:SCCF:18:1,2014-06-04T23:00:00Z,26.6955,-81.8138,-9999.0,1111122 
SCCF RECON,ioos:station:SCCF:18:1,2014-06-05T00:00:00Z,26.6955,-81.8138,-9999.0,1111122 
SCCF RECON,ioos:station:SCCF:18:1,2014-06-05T01:00:00Z,26.6955,-81.8138,-9999.0,1111122 
SCCF RECON,ioos:station:SCCF:18:1,2014-06-05T02:00:00Z,26.6955,-81.8138,-9999.0,1111122 
SCCF RECON,ioos:station:SCCF:18:1,2014-06-05T03:00:00Z,26.6955,-81.8138,-9999.0,1111122 
SCCF RECON,ioos:station:SCCF:18:1,2014-06-05T04:00:00Z,26.6955,-81.8138,-9999.0,1111122 
SCCF RECON,ioos:station:SCCF:18:1,2014-06-05T05:00:00Z,26.6955,-81.8138,-9999.0,1111122 
SCCF RECON,ioos:station:SCCF:18:1,2014-06-05T06:00:00Z,26.6955,-81.8138,-9999.0,1111122 
SCCF RECON,ioos:station:SCCF:18:1,2014-06-05T07:00:00Z,26.6955,-81.8138,-9999.0,1111122 
SCCF RECON,ioos:station:SCCF:18:1,2014-06-05T08:00:00Z,26.6955,-81.8138,7.2,1111122 
SCCF RECON,ioos:station:SCCF:18:1,2014-06-05T09:00:00Z,26.6955,-81.8138,-9999.0,1111122 
SCCF RECON,ioos:station:SCCF:18:1,2014-06-05T10:00:00Z,26.6955,-81.8138,6.71,1111122 
SCCF RECON,ioos:station:SCCF:18:1,2014-06-05T11:00:00Z,26.6955,-81.8138,-9999.0,1111122 
SCCF RECON,ioos:station:SCCF:18:1,2014-06-05T12:00:00Z,26.6955,-81.8138,-9999.0,1111122 
SCCF RECON,ioos:station:SCCF:18:1,2014-06-05T13:00:00Z,26.6955,-81.8138,-9999.0,1111122 
SCCF RECON,ioos:station:SCCF:18:1,2014-06-05T14:00:00Z,26.6955,-81.8138,-9999.0,1111122 
SCCF RECON,ioos:station:SCCF:18:1,2014-06-05T15:00:00Z,26.6955,-81.8138,-9999.0,1111122 
SCCF RECON,ioos:station:SCCF:18:1,2014-06-05T16:00:00Z,26.6955,-81.8138,-9999.0,1111122 
SCCF RECON,ioos:station:SCCF:18:1,2014-06-05T17:00:00Z,26.6955,-81.8138,-9999.0,1111122 
SCCF RECON,ioos:station:SCCF:18:1,2014-06-05T18:00:00Z,26.6955,-81.8138,-9999.0,1111122 
SCCF RECON,ioos:station:SCCF:18:1,2014-06-05T19:00:00Z,26.6955,-81.8138,-9999.0,1111122 
SCCF RECON,ioos:station:SCCF:18:1,2014-06-05T20:00:00Z,26.6955,-81.8138,-9999.0,1111122 
SCCF RECON,ioos:station:SCCF:18:1,2014-06-05T21:00:00Z,26.6955,-81.8138,-9999.0,1111122 
SCCF RECON,ioos:station:SCCF:18:1,2014-06-05T22:00:00Z,26.6955,-81.8138,-9999.0,1111122 
SCCF RECON,ioos:station:SCCF:18:1,2014-06-05T23:00:00Z,26.6955,-81.8138,-9999.0,1111122 
SCCF RECON,ioos:station:SCCF:18:1,2014-06-06T00:00:00Z,26.6955,-81.8138,-9999.0,1111122 
SCCF RECON,ioos:station:SCCF:18:1,2014-06-06T01:00:00Z,26.6955,-81.8138,-9999.0,1111122 
SCCF RECON,ioos:station:SCCF:18:1,2014-06-06T02:00:00Z,26.6955,-81.8138,-9999.0,1111122 
SCCF RECON,ioos:station:SCCF:18:1,2014-06-06T03:00:00Z,26.6955,-81.8138,-9999.0,1111122 
SCCF RECON,ioos:station:SCCF:18:1,2014-06-06T04:00:00Z,26.6955,-81.8138,-9999.0,1111122 
SCCF RECON,ioos:station:SCCF:18:1,2014-06-06T05:00:00Z,26.6955,-81.8138,-9999.0,1111122 
SCCF RECON,ioos:station:SCCF:18:1,2014-06-06T06:00:00Z,26.6955,-81.8138,-9999.0,1111122 
SCCF RECON,ioos:station:SCCF:18:1,2014-06-06T07:00:00Z,26.6955,-81.8138,-9999.0,1111122 
SCCF RECON,ioos:station:SCCF:18:1,2014-06-06T08:00:00Z,26.6955,-81.8138,-9999.0,1111122 
SCCF RECON,ioos:station:SCCF:18:1,2014-06-06T09:00:00Z,26.6955,-81.8138,-9999.0,1111122 
SCCF RECON,ioos:station:SCCF:18:1,2014-06-06T10:00:00Z,26.6955,-81.8138,-9999.0,1111122 
SCCF RECON,ioos:station:SCCF:18:1,2014-06-06T11:00:00Z,26.6955,-81.8138,-9999.0,1111122 
SCCF RECON,ioos:station:SCCF:18:1,2014-06-06T12:00:00Z,26.6955,-81.8138,-9999.0,1111122 
SCCF RECON,ioos:station:SCCF:18:1,2014-06-06T13:00:00Z,26.6955,-81.8138,-9999.0,1111122 
SCCF RECON,ioos:station:SCCF:18:1,2014-06-06T14:00:00Z,26.6955,-81.8138,-9999.0,1111122 
SCCF RECON,ioos:station:SCCF:18:1,2014-06-06T15:00:00Z,26.6955,-81.8138,17.99,1111122 
SCCF RECON,ioos:station:SCCF:18:1,2014-06-06T16:00:00Z,26.6955,-81.8138,18.49,1111122 
SCCF RECON,ioos:station:SCCF:18:1,2014-06-06T17:00:00Z,26.6955,-81.8138,10.65,1111122 
SCCF RECON,ioos:station:SCCF:18:1,2014-06-06T18:00:00Z,26.6955,-81.8138,11.71,1111122 
SCCF RECON,ioos:station:SCCF:18:1,2014-06-06T19:00:00Z,26.6955,-81.8138,8.97,1111122 
SCCF RECON,ioos:station:SCCF:18:1,2014-06-06T20:00:00Z,26.6955,-81.8138,11.11,1111122 
SCCF RECON,ioos:station:SCCF:18:1,2014-06-06T21:00:00Z,26.6955,-81.8138,15.45,1111122 
SCCF RECON,ioos:station:SCCF:18:1,2014-06-06T22:00:00Z,26.6955,-81.8138,10.18,1111122 
SCCF RECON,ioos:station:SCCF:18:1,2014-06-06T23:00:00Z,26.6955,-81.8138,10.9,1111122 
SCCF RECON,ioos:station:SCCF:18:1,2014-06-07T00:00:00Z,26.6955,-81.8138,13.96,1111122 
SCCF RECON,ioos:station:SCCF:18:1,2014-06-07T01:00:00Z,26.6955,-81.8138,9.74,1111122 
SCCF RECON,ioos:station:SCCF:18:1,2014-06-07T02:00:00Z,26.6955,-81.8138,9.85,1111122 
SCCF RECON,ioos:station:SCCF:18:1,2014-06-07T03:00:00Z,26.6955,-81.8138,11.08,1111122 
SCCF RECON,ioos:station:SCCF:18:1,2014-06-07T04:00:00Z,26.6955,-81.8138,8.64,1111122 
SCCF RECON,ioos:station:SCCF:18:1,2014-06-07T05:00:00Z,26.6955,-81.8138,6.89,1111122 
SCCF RECON,ioos:station:SCCF:18:1,2014-06-07T06:00:00Z,26.6955,-81.8138,8.55,1111122 
SCCF RECON,ioos:station:SCCF:18:1,2014-06-07T07:00:00Z,26.6955,-81.8138,8.17,1111122 
SCCF RECON,ioos:station:SCCF:18:1,2014-06-07T08:00:00Z,26.6955,-81.8138,7.0,1111122 
SCCF RECON,ioos:station:SCCF:18:1,2014-06-07T09:00:00Z,26.6955,-81.8138,7.99,1111122 
SCCF RECON,ioos:station:SCCF:18:1,2014-06-07T10:00:00Z,26.6955,-81.8138,7.36,1111122 
SCCF RECON,ioos:station:SCCF:18:1,2014-06-07T11:00:00Z,26.6955,-81.8138,8.2,1111122 
SCCF RECON,ioos:station:SCCF:18:1,2014-06-07T12:00:00Z,26.6955,-81.8138,12.03,1111122 
SCCF RECON,ioos:station:SCCF:18:1,2014-06-07T13:00:00Z,26.6955,-81.8138,8.59,1111122 
SCCF RECON,ioos:station:SCCF:18:1,2014-06-07T14:00:00Z,26.6955,-81.8138,10.66,1111122 
SCCF RECON,ioos:station:SCCF:18:1,2014-06-07T15:00:00Z,26.6955,-81.8138,11.72,1111122 
SCCF RECON,ioos:station:SCCF:18:1,2014-06-07T16:00:00Z,26.6955,-81.8138,11.18,1111122 
SCCF RECON,ioos:station:SCCF:18:1,2014-06-07T17:00:00Z,26.6955,-81.8138,12.04,1111122 
SCCF RECON,ioos:station:SCCF:18:1,2014-06-07T18:00:00Z,26.6955,-81.8138,15.55,1111122 
SCCF RECON,ioos:station:SCCF:18:1,2014-06-07T19:00:00Z,26.6955,-81.8138,15.26,1111122 
SCCF RECON,ioos:station:SCCF:18:1,2014-06-07T20:00:00Z,26.6955,-81.8138,12.67,1111122 
SCCF RECON,ioos:station:SCCF:18:1,2014-06-07T21:00:00Z,26.6955,-81.8138,9.93,1111122 
SCCF RECON,ioos:station:SCCF:18:1,2014-06-07T22:00:00Z,26.6955,-81.8138,13.03,1111122 
SCCF RECON,ioos:station:SCCF:18:1,2014-06-07T23:00:00Z,26.6955,-81.8138,9.09,1111122 
SCCF RECON,ioos:station:SCCF:18:1,2014-06-08T00:00:00Z,26.6955,-81.8138,10.62,1111122 
SCCF RECON,ioos:station:SCCF:18:1,2014-06-08T01:00:00Z,26.6955,-81.8138,8.81,1111122 
SCCF RECON,ioos:station:SCCF:18:1,2014-06-08T02:00:00Z,26.6955,-81.8138,8.58,1111122 
SCCF RECON,ioos:station:SCCF:18:1,2014-06-08T03:00:00Z,26.6955,-81.8138,7.7,1111122 
SCCF RECON,ioos:station:SCCF:18:1,2014-06-08T04:00:00Z,26.6955,-81.8138,7.77,1111122 
SCCF RECON,ioos:station:SCCF:18:1,2014-06-08T05:00:00Z,26.6955,-81.8138,7.29,1111122 
SCCF RECON,ioos:station:SCCF:18:1,2014-06-08T06:00:00Z,26.6955,-81.8138,6.25,1111122 
SCCF RECON,ioos:station:SCCF:18:1,2014-06-08T07:00:00Z,26.6955,-81.8138,7.2,1111122 
SCCF RECON,ioos:station:SCCF:18:1,2014-06-08T08:00:00Z,26.6955,-81.8138,6.37,1111122 
SCCF RECON,ioos:station:SCCF:18:1,2014-06-08T09:00:00Z,26.6955,-81.8138,5.75,1111122 
SCCF RECON,ioos:station:SCCF:18:1,2014-06-08T10:00:00Z,26.6955,-81.8138,6.45,1111122 
SCCF RECON,ioos:station:SCCF:18:1,2014-06-08T11:00:00Z,26.6955,-81.8138,6.98,1111122 
SCCF RECON,ioos:station:SCCF:18:1,2014-06-08T12:00:00Z,26.6955,-81.8138,6.71,1111122 
SCCF RECON,ioos:station:SCCF:18:1,2014-06-08T13:00:00Z,26.6955,-81.8138,9.64,1111122 
SCCF RECON,ioos:station:SCCF:18:1,2014-06-08T14:00:00Z,26.6955,-81.8138,7.9,1111122 
SCCF RECON,ioos:station:SCCF:18:1,2014-06-08T15:00:00Z,26.6955,-81.8138,8.51,1111122 
SCCF RECON,ioos:station:SCCF:18:1,2014-06-08T16:00:00Z,26.6955,-81.8138,9.71,1111122 
SCCF RECON,ioos:station:SCCF:18:1,2014-06-08T17:00:00Z,26.6955,-81.8138,10.15,1111122 
SCCF RECON,ioos:station:SCCF:18:1,2014-06-08T18:00:00Z,26.6955,-81.8138,12.51,1111122 
SCCF RECON,ioos:station:SCCF:18:1,2014-06-08T19:00:00Z,26.6955,-81.8138,11.56,1111122 
SCCF RECON,ioos:station:SCCF:18:1,2014-06-08T20:00:00Z,26.6955,-81.8138,10.44,1111122 
SCCF RECON,ioos:station:SCCF:18:1,2014-06-08T21:00:00Z,26.6955,-81.8138,8.61,1111122 
SCCF RECON,ioos:station:SCCF:18:1,2014-06-08T22:00:00Z,26.6955,-81.8138,9.42,1111122 
SCCF RECON,ioos:station:SCCF:18:1,2014-06-08T23:00:00Z,26.6955,-81.8138,8.44,1111122 
SCCF RECON,ioos:station:SCCF:18:1,2014-06-09T00:00:00Z,26.6955,-81.8138,9.06,1111122 
SCCF RECON,ioos:station:SCCF:18:1,2014-06-09T01:00:00Z,26.6955,-81.8138,7.21,1111122 
SCCF RECON,ioos:station:SCCF:18:1,2014-06-09T02:00:00Z,26.6955,-81.8138,6.76,1111122 
SCCF RECON,ioos:station:SCCF:18:1,2014-06-09T03:00:00Z,26.6955,-81.8138,6.99,1111122 
SCCF RECON,ioos:station:SCCF:18:1,2014-06-09T04:00:00Z,26.6955,-81.8138,7.01,1111122 
SCCF RECON,ioos:station:SCCF:18:1,2014-06-09T05:00:00Z,26.6955,-81.8138,6.27,1111122 
SCCF RECON,ioos:station:SCCF:18:1,2014-06-09T06:00:00Z,26.6955,-81.8138,5.85,1111122 
SCCF RECON,ioos:station:SCCF:18:1,2014-06-09T07:00:00Z,26.6955,-81.8138,6.98,1111122 
SCCF RECON,ioos:station:SCCF:18:1,2014-06-09T08:00:00Z,26.6955,-81.8138,6.25,1111122 
SCCF RECON,ioos:station:SCCF:18:1,2014-06-09T09:00:00Z,26.6955,-81.8138,5.75,1111122 
SCCF RECON,ioos:station:SCCF:18:1,2014-06-09T10:00:00Z,26.6955,-81.8138,5.5,1111122 
SCCF RECON,ioos:station:SCCF:18:1,2014-06-09T11:00:00Z,26.6955,-81.8138,6.17,1111122 
SCCF RECON,ioos:station:SCCF:18:1,2014-06-09T12:00:00Z,26.6955,-81.8138,5.86,1111122 
SCCF RECON,ioos:station:SCCF:18:1,2014-06-09T13:00:00Z,26.6955,-81.8138,7.69,1111122 
SCCF RECON,ioos:station:SCCF:18:1,2014-06-09T14:00:00Z,26.6955,-81.8138,7.32,1111122 
SCCF RECON,ioos:station:SCCF:18:1,2014-06-09T15:00:00Z,26.6955,-81.8138,7.93,1111122 
SCCF RECON,ioos:station:SCCF:18:1,2014-06-09T16:00:00Z,26.6955,-81.8138,7.38,1111122 
SCCF RECON,ioos:station:SCCF:18:1,2014-06-09T17:00:00Z,26.6955,-81.8138,6.84,1111122 
SCCF RECON,ioos:station:SCCF:18:1,2014-06-09T18:00:00Z,26.6955,-81.8138,6.52,1111122 
SCCF RECON,ioos:station:SCCF:18:1,2014-06-09T19:00:00Z,26.6955,-81.8138,6.76,1111122 
SCCF RECON,ioos:station:SCCF:18:1,2014-06-09T20:00:00Z,26.6955,-81.8138,8.78,1111122 
SCCF RECON,ioos:station:SCCF:18:1,2014-06-09T21:00:00Z,26.6955,-81.8138,10.12,1111122 
SCCF RECON,ioos:station:SCCF:18:1,2014-06-09T22:00:00Z,26.6955,-81.8138,8.17,1111122 
SCCF RECON,ioos:station:SCCF:18:1,2014-06-09T23:00:00Z,26.6955,-81.8138,7.57,1111122 
SCCF RECON,ioos:station:SCCF:18:1,2014-06-10T00:00:00Z,26.6955,-81.8138,7.82,1111122 
SCCF RECON,ioos:station:SCCF:18:1,2014-06-10T01:00:00Z,26.6955,-81.8138,8.3,1111122 
SCCF RECON,ioos:station:SCCF:18:1,2014-06-10T02:00:00Z,26.6955,-81.8138,6.65,1111122 
SCCF RECON,ioos:station:SCCF:18:1,2014-06-10T03:00:00Z,26.6955,-81.8138,7.06,1111122 
SCCF RECON,ioos:station:SCCF:18:1,2014-06-10T04:00:00Z,26.6955,-81.8138,6.16,1111122 
SCCF RECON,ioos:station:SCCF:18:1,2014-06-10T05:00:00Z,26.6955,-81.8138,6.1,1111122 
SCCF RECON,ioos:station:SCCF:18:1,2014-06-10T06:00:00Z,26.6955,-81.8138,5.51,1111122 
SCCF RECON,ioos:station:SCCF:18:1,2014-06-10T07:00:00Z,26.6955,-81.8138,5.45,1111122 
SCCF RECON,ioos:station:SCCF:18:1,2014-06-10T08:00:00Z,26.6955,-81.8138,5.32,1111122 
SCCF RECON,ioos:station:SCCF:18:1,2014-06-10T09:00:00Z,26.6955,-81.8138,6.41,1111122 
SCCF RECON,ioos:station:SCCF:18:1,2014-06-10T10:00:00Z,26.6955,-81.8138,5.77,1111122 
SCCF RECON,ioos:station:SCCF:18:1,2014-06-10T11:00:00Z,26.6955,-81.8138,5.88,1111122 
SCCF RECON,ioos:station:SCCF:18:1,2014-06-10T12:00:00Z,26.6955,-81.8138,5.62,1111122 
SCCF RECON,ioos:station:SCCF:18:1,2014-06-10T13:00:00Z,26.6955,-81.8138,5.13,1111122 
SCCF RECON,ioos:station:SCCF:18:1,2014-06-10T14:00:00Z,26.6955,-81.8138,6.44,1111122 
SCCF RECON,ioos:station:SCCF:18:1,2014-06-10T15:00:00Z,26.6955,-81.8138,7.56,1111122 
SCCF RECON,ioos:station:SCCF:18:1,2014-06-10T16:00:00Z,26.6955,-81.8138,5.73,1111122 
SCCF RECON,ioos:station:SCCF:18:1,2014-06-10T17:00:00Z,26.6955,-81.8138,7.23,1111122 
SCCF RECON,ioos:station:SCCF:18:1,2014-06-10T18:00:00Z,26.6955,-81.8138,10.23,1111122 
SCCF RECON,ioos:station:SCCF:18:1,2014-06-10T19:00:00Z,26.6955,-81.8138,8.16,1111122 
SCCF RECON,ioos:station:SCCF:18:1,2014-06-10T20:00:00Z,26.6955,-81.8138,14.37,1111122 
SCCF RECON,ioos:station:SCCF:18:1,2014-06-10T21:00:00Z,26.6955,-81.8138,10.76,1111122 
SCCF RECON,ioos:station:SCCF:18:1,2014-06-10T22:00:00Z,26.6955,-81.8138,9.16,1111122 
SCCF RECON,ioos:station:SCCF:18:1,2014-06-10T23:00:00Z,26.6955,-81.8138,9.21,1111122 
SCCF RECON,ioos:station:SCCF:18:1,2014-06-11T00:00:00Z,26.6955,-81.8138,8.95,1111122 
SCCF RECON,ioos:station:SCCF:18:1,2014-06-11T01:00:00Z,26.6955,-81.8138,7.67,1111122 
SCCF RECON,ioos:station:SCCF:18:1,2014-06-11T02:00:00Z,26.6955,-81.8138,7.36,1111122 
SCCF RECON,ioos:station:SCCF:18:1,2014-06-11T03:00:00Z,26.6955,-81.8138,5.88,1111122 
SCCF RECON,ioos:station:SCCF:18:1,2014-06-11T04:00:00Z,26.6955,-81.8138,5.85,1111122 
SCCF RECON,ioos:station:SCCF:18:1,2014-06-11T05:00:00Z,26.6955,-81.8138,6.31,1111122 
SCCF RECON,ioos:station:SCCF:18:1,2014-06-11T06:00:00Z,26.6955,-81.8138,5.97,1111122 
SCCF RECON,ioos:station:SCCF:18:1,2014-06-11T07:00:00Z,26.6955,-81.8138,6.49,1111122 
SCCF RECON,ioos:station:SCCF:18:1,2014-06-11T08:00:00Z,26.6955,-81.8138,6.45,1111122 
SCCF RECON,ioos:station:SCCF:18:1,2014-06-11T09:00:00Z,26.6955,-81.8138,6.13,1111122 
SCCF RECON,ioos:station:SCCF:18:1,2014-06-11T10:00:00Z,26.6955,-81.8138,5.71,1111122 
SCCF RECON,ioos:station:SCCF:18:1,2014-06-11T11:00:00Z,26.6955,-81.8138,5.83,1111122 
SCCF RECON,ioos:station:SCCF:18:1,2014-06-11T12:00:00Z,26.6955,-81.8138,5.79,1111122 
SCCF RECON,ioos:station:SCCF:18:1,2014-06-11T13:00:00Z,26.6955,-81.8138,6.07,1111122 
SCCF RECON,ioos:station:SCCF:18:1,2014-06-11T14:00:00Z,26.6955,-81.8138,6.33,1111122 
SCCF RECON,ioos:station:SCCF:18:1,2014-06-11T15:00:00Z,26.6955,-81.8138,5.99,1111122 
SCCF RECON,ioos:station:SCCF:18:1,2014-06-11T16:00:00Z,26.6955,-81.8138,6.47,1111122 
SCCF RECON,ioos:station:SCCF:18:1,2014-06-11T17:00:00Z,26.6955,-81.8138,8.08,1111122 
SCCF RECON,ioos:station:SCCF:18:1,2014-06-11T18:00:00Z,26.6955,-81.8138,9.24,1111122 
SCCF RECON,ioos:station:SCCF:18:1,2014-06-11T19:00:00Z,26.6955,-81.8138,11.07,1111122 
SCCF RECON,ioos:station:SCCF:18:1,2014-06-11T20:00:00Z,26.6955,-81.8138,11.18,1111122 
SCCF RECON,ioos:station:SCCF:18:1,2014-06-11T21:00:00Z,26.6955,-81.8138,10.13,1111122 
SCCF RECON,ioos:station:SCCF:18:1,2014-06-11T22:00:00Z,26.6955,-81.8138,12.47,1111122 
SCCF RECON,ioos:station:SCCF:18:1,2014-06-11T23:00:00Z,26.6955,-81.8138,13.54,1111122 
SCCF RECON,ioos:station:SCCF:18:1,2014-06-12T00:00:00Z,26.6955,-81.8138,11.15,1111122 
SCCF RECON,ioos:station:SCCF:18:1,2014-06-12T01:00:00Z,26.6955,-81.8138,10.03,1111122 
SCCF RECON,ioos:station:SCCF:18:1,2014-06-12T02:00:00Z,26.6955,-81.8138,10.66,1111122 
SCCF RECON,ioos:station:SCCF:18:1,2014-06-12T03:00:00Z,26.6955,-81.8138,6.96,1111122 
SCCF RECON,ioos:station:SCCF:18:1,2014-06-12T04:00:00Z,26.6955,-81.8138,7.39,1111122 
SCCF RECON,ioos:station:SCCF:18:1,2014-06-12T05:00:00Z,26.6955,-81.8138,6.34,1111122 
SCCF RECON,ioos:station:SCCF:18:1,2014-06-12T06:00:00Z,26.6955,-81.8138,6.5,1111122 
SCCF RECON,ioos:station:SCCF:18:1,2014-06-12T07:00:00Z,26.6955,-81.8138,5.89,1111122 
SCCF RECON,ioos:station:SCCF:18:1,2014-06-12T08:00:00Z,26.6955,-81.8138,5.93,1111122 
SCCF RECON,ioos:station:SCCF:18:1,2014-06-12T09:00:00Z,26.6955,-81.8138,5.49,1111122 
SCCF RECON,ioos:station:SCCF:18:1,2014-06-12T10:00:00Z,26.6955,-81.8138,6.06,1111122 